Wind_Speed
16 15 15 15 16 16 17 17 17 17 17 16 15 15 15 15 15 16 16 15 15 15 17 16 16 16 15 15 15 16 17 18 18 18 20 21 23 24 25 24 24 25 25
15 14 15 15 15 15 16 16 17 17 17 16 15 15 15 15 15 15 14 14 14 15 15 15 15 13 13 13 14 15 16 16 17 17 18 19 20 21 22 22 23 24 25
14 14 14 14 14 15 15 16 16 16 16 15 15 15 15 15 14 13 13 13 13 13 14 14 13 13 13 13 14 14 14 14 15 15 16 17 18 19 19 20 21 21 22
13 12 13 13 14 14 14 15 15 15 15 15 15 15 15 14 14 13 13 14 14 14 14 14 13 13 13 13 13 13 12 11 11 13 13 14 15 16 18 18 18 19 20
12 12 12 12 13 14 14 15 15 15 15 15 15 15 15 14 13 13 14 15 15 14 14 13 13 13 13 13 12 12 11 10 9 10 11 11 12 13 14 16 17 18 18
12 11 12 13 13 14 14 15 15 15 15 16 15 15 16 15 14 14 14 14 14 14 14 13 13 13 13 13 12 11 10 9 9 9 9 10 10 11 12 13 15 17 17
12 11 11 12 13 14 15 15 15 15 15 15 15 16 16 16 15 15 14 14 15 15 14 14 13 13 13 13 12 11 10 8 8 8 9 9 10 10 11 12 13 14 14
12 12 12 13 14 14 15 15 15 15 15 16 16 16 16 16 16 15 15 15 15 15 14 14 13 12 12 12 12 11 10 9 8 8 8 8 8 9 10 10 10 11 12
13 13 13 13 14 14 15 16 16 16 16 16 16 16 16 16 16 16 15 15 15 15 14 14 13 12 12 12 11 11 10 9 8 8 8 8 8 8 9 10 10 11 12
14 14 14 14 14 14 15 16 16 16 16 16 16 16 16 16 17 16 16 15 15 15 15 14 13 12 12 12 11 11 10 9 8 8 7 7 8 8 8 8 9 10 11
16 15 15 15 15 15 16 16 16 16 16 16 16 17 17 17 17 16 16 15 14 14 14 14 13 12 12 11 10 9 8 8 8 7 7 7 7 7 7 7 8 8 9
17 17 17 17 17 17 17 16 16 15 15 16 16 17 17 17 16 16 15 15 14 14 13 13 13 13 12 11 10 10 9 8 7 7 7 7 7 7 7 8 8 8 8
19 18 18 18 18 17 16 16 15 15 14 15 15 16 15 16 16 16 15 14 14 14 13 13 13 13 12 11 11 10 10 9 8 7 7 7 7 8 8 8 8 8 8
19 18 18 18 18 17 17 16 15 14 14 14 14 15 15 15 15 15 15 14 13 13 13 13 13 12 12 11 11 10 9 8 7 7 6 6 7 8 8 8 8 8 9
19 19 18 18 18 17 17 17 16 15 14 14 15 15 15 15 15 15 14 14 14 14 13 13 13 12 12 11 10 9 8 8 7 7 7 7 7 7 8 8 8 9 10
20 20 19 18 18 18 17 18 17 16 15 15 15 15 15 15 15 14 14 14 14 13 13 13 12 11 11 11 10 10 9 8 8 8 7 7 7 8 9 9 9 10 11
21 21 20 19 19 19 19 19 18 17 16 15 15 15 15 16 15 15 14 15 14 14 13 13 12 11 10 10 10 10 10 9 9 8 8 8 8 9 9 10 10 10 11
22 21 20 20 20 19 19 19 18 17 16 16 16 16 16 16 15 15 14 14 14 14 14 13 12 11 11 10 11 11 11 11 10 10 9 10 10 10 10 11 11 11 11
21 21 20 20 20 19 19 18 18 17 17 16 16 16 16 15 15 14 14 14 14 14 14 13 12 12 12 11 11 11 11 11 11 11 10 11 10 11 11 11 11 11 11
22 22 21 21 20 19 18 17 17 17 17 16 16 16 15 15 15 14 14 15 15 14 13 13 13 13 12 11 10 10 10 11 11 11 11 11 11 10 10 10 10 11 11
22 22 22 22 20 19 18 17 17 17 17 16 15 15 14 14 15 15 15 15 14 13 13 13 12 12 12 12 11 10 10 11 11 11 11 10 10 10 9 9 9 10 10
22 21 21 21 21 19 19 18 17 17 16 15 15 14 14 14 15 15 15 14 13 13 12 12 12 12 12 12 11 11 10 10 11 11 10 9 9 9 9 9 9 10 11
22 22 21 21 21 21 20 19 18 17 16 16 15 14 14 14 14 14 13 13 13 12 12 12 12 11 11 11 11 11 11 10 9 8 8 8 9 9 9 10 10 11 11
21 21 21 21 21 21 20 19 18 18 17 16 16 15 15 14 14 13 12 12 12 12 12 12 11 10 10 10 10 10 10 9 9 9 8 8 8 9 10 10 10 11 11
21 21 21 20 20 20 20 19 18 18 18 17 16 16 15 14 14 13 13 12 12 11 11 11 11 10 10 10 10 10 9 9 8 8 9 9 9 9 10 10 10 10 11
21 20 20 21 21 20 20 19 19 18 17 17 17 16 15 14 14 14 14 14 13 11 11 10 10 10 10 10 9 9 9 9 9 9 9 10 10 10 11 11 11 11 12
Wind_Direction
318 317 319 320 320 323 325 326 327 330 332 330 327 325 323 320 318 316 315 312 310 313 317 313 306 300 292 288 287 282 273 267 262 258 256 250 246 246 243 242 244 246 245
320 320 320 321 324 326 328 329 330 331 332 333 332 331 328 323 322 321 320 319 316 315 317 317 313 308 299 296 294 291 281 271 265 260 256 255 249 246 244 243 245 244 243
319 320 323 324 325 327 331 333 334 334 337 340 338 338 336 331 328 328 330 329 325 319 316 319 319 316 309 304 301 298 289 277 267 260 255 253 250 245 244 243 243 242 242
322 321 322 324 325 328 330 334 337 340 342 342 342 343 343 340 336 334 334 334 331 325 321 321 320 318 315 311 307 304 296 286 272 264 261 255 250 244 240 240 240 239 240
322 322 324 327 331 333 334 335 338 343 343 342 340 342 342 339 336 335 335 334 334 333 329 326 324 323 322 320 315 313 307 296 282 271 261 254 248 242 240 238 239 238 241
322 321 323 326 330 332 334 335 337 338 339 338 337 338 339 338 335 334 334 336 337 334 332 328 325 324 325 326 323 318 312 301 287 276 265 257 252 245 243 241 240 240 242
318 318 318 321 324 325 327 329 330 334 336 336 335 337 338 338 336 336 338 336 335 334 333 331 328 326 327 325 322 317 315 307 293 278 267 257 252 248 244 242 244 245 244
312 312 314 315 319 321 323 326 328 330 332 333 336 336 335 336 336 335 334 333 332 333 334 331 327 327 327 324 319 315 309 304 293 285 273 256 247 247 247 241 243 241 240
307 310 311 312 314 317 321 324 325 327 330 332 332 333 332 333 332 331 331 330 331 332 332 330 327 325 326 326 320 313 306 298 290 279 270 261 256 249 248 245 244 243 242
301 303 305 309 313 315 318 321 322 325 329 332 334 334 332 331 333 332 330 329 329 332 333 334 332 328 324 322 319 313 306 299 290 283 276 267 261 256 259 253 246 247 244
296 298 300 304 308 310 313 316 319 322 326 329 331 333 332 333 335 335 334 334 332 331 332 333 335 333 328 323 322 321 315 306 295 288 284 273 261 259 261 259 251 251 249
293 295 297 299 303 305 307 310 315 320 324 328 329 330 333 333 335 336 336 336 336 336 335 334 335 336 332 327 324 324 319 309 299 292 287 281 272 264 262 262 262 262 254
292 293 295 296 300 302 303 307 311 315 319 323 328 331 332 333 335 338 337 335 334 335 336 334 334 334 334 329 323 318 312 306 296 287 281 280 273 267 262 259 259 262 263
291 289 290 293 297 299 300 303 306 310 314 319 324 329 331 331 331 334 335 335 335 336 336 335 333 333 333 331 327 322 318 314 305 296 285 279 276 272 266 265 266 269 267
286 286 287 289 292 294 296 298 299 303 308 314 319 325 328 328 330 332 333 333 334 335 335 334 333 330 330 331 330 327 322 320 314 304 293 283 276 269 267 268 270 271 272
282 283 284 284 287 289 291 294 294 297 301 307 313 320 325 327 327 328 331 333 333 334 335 334 333 331 331 329 328 328 323 320 317 310 300 290 283 277 273 275 279 282 280
281 281 279 280 283 285 285 288 289 291 294 299 305 312 317 321 322 324 326 329 329 329 331 330 330 332 332 329 325 321 321 319 316 311 305 297 291 285 281 281 283 285 285
277 277 277 278 279 282 284 284 284 284 287 291 297 303 309 314 317 318 320 322 323 324 324 325 325 324 323 320 321 319 316 315 313 310 303 296 293 289 285 283 283 286 288
273 274 275 275 276 278 280 279 280 282 284 287 291 297 303 307 311 314 315 317 316 316 320 323 322 320 318 316 314 314 313 312 311 306 304 299 296 295 292 289 289 291 291
270 271 271 273 274 276 278 277 277 279 282 284 286 292 298 303 306 309 312 314 314 312 315 319 323 324 322 318 314 309 307 308 309 306 303 302 301 298 297 294 293 294 295
267 267 269 270 271 273 274 274 276 278 282 286 288 291 296 300 304 305 308 310 311 312 315 319 321 320 320 321 319 315 307 306 310 310 304 302 303 301 300 300 298 298 300
265 264 265 266 265 267 269 269 272 275 278 282 286 290 294 298 302 306 308 307 308 311 314 318 320 319 319 320 319 314 309 308 309 307 303 303 306 307 306 303 303 305 305
266 265 263 263 265 266 266 266 268 271 274 275 280 284 290 297 301 306 309 307 307 310 315 317 318 318 317 317 316 313 310 309 311 313 311 308 306 306 307 306 303 305 309
266 265 262 262 264 266 267 265 265 267 268 270 276 279 285 291 296 300 305 308 309 312 316 316 317 319 320 320 319 317 315 313 309 309 310 308 308 308 308 309 310 310 311
263 263 261 261 263 265 267 266 265 265 267 269 272 275 281 285 290 293 296 302 306 308 311 313 314 318 320 319 317 317 319 316 314 312 310 307 305 306 310 313 315 314 312
260 261 260 261 262 262 264 265 264 262 266 268 269 271 275 278 283 287 289 292 296 300 304 307 308 309 310 310 312 314 315 313 310 310 311 311 310 309 311 313 313 311 310
Height
5792 5790 5787 5784 5782 5779 5775 5772 5768 5765 5761 5757 5754 5751 5748 5745 5743 5740 5738 5735 5733 5731 5728 5725 5722 5720 5718 5716 5714 5712 5711 5711 5710 5711 5710 5711 5712 5713 5715 5717 5719 5721 5723
5789 5786 5784 5781 5779 5776 5773 5769 5766 5762 5758 5754 5751 5748 5745 5742 5739 5737 5734 5732 5729 5727 5724 5721 5718 5716 5714 5711 5709 5707 5706 5705 5705 5705 5705 5705 5706 5707 5709 5711 5713 5715 5717
5786 5783 5781 5779 5776 5773 5770 5767 5763 5760 5756 5752 5749 5746 5743 5739 5737 5734 5731 5729 5726 5724 5721 5718 5715 5713 5710 5708 5706 5703 5701 5700 5700 5700 5700 5700 5701 5702 5703 5705 5707 5709 5711
5783 5781 5779 5777 5774 5771 5768 5765 5761 5758 5754 5751 5747 5744 5741 5738 5735 5732 5729 5726 5723 5720 5718 5715 5712 5710 5707 5704 5702 5700 5698 5696 5696 5696 5696 5696 5696 5697 5698 5700 5702 5704 5706
5781 5778 5776 5774 5771 5769 5766 5763 5760 5756 5753 5749 5746 5743 5739 5736 5733 5730 5727 5724 5721 5718 5715 5712 5709 5706 5704 5701 5699 5697 5695 5693 5693 5692 5692 5693 5693 5693 5694 5696 5697 5699 5701
5778 5776 5774 5771 5769 5767 5764 5761 5758 5755 5751 5748 5744 5741 5738 5734 5731 5728 5724 5721 5718 5715 5712 5709 5706 5704 5701 5699 5696 5694 5693 5691 5690 5690 5690 5690 5690 5690 5691 5692 5693 5695 5696
5776 5773 5771 5769 5767 5765 5762 5759 5756 5753 5749 5746 5743 5739 5736 5732 5729 5725 5722 5719 5716 5712 5709 5706 5703 5701 5698 5696 5694 5692 5690 5689 5688 5688 5687 5687 5687 5687 5688 5689 5690 5691 5692
5773 5771 5769 5767 5765 5763 5760 5757 5754 5751 5747 5744 5740 5737 5734 5730 5727 5723 5720 5716 5713 5710 5707 5704 5701 5698 5696 5694 5691 5689 5688 5686 5686 5685 5684 5684 5684 5684 5685 5686 5686 5687 5688
5770 5769 5767 5765 5763 5760 5757 5755 5752 5749 5745 5742 5738 5735 5732 5728 5724 5721 5717 5714 5711 5707 5704 5701 5698 5696 5693 5691 5689 5687 5685 5684 5683 5682 5682 5681 5681 5681 5682 5683 5683 5684 5685
5767 5766 5764 5762 5760 5758 5755 5752 5749 5746 5743 5739 5736 5733 5729 5726 5722 5718 5715 5711 5708 5705 5702 5699 5696 5693 5691 5688 5686 5684 5683 5681 5680 5680 5679 5679 5679 5679 5679 5680 5680 5681 5681
5764 5762 5760 5758 5756 5754 5752 5749 5746 5743 5740 5737 5734 5730 5726 5723 5719 5715 5712 5709 5705 5702 5699 5696 5694 5691 5688 5686 5684 5682 5680 5679 5678 5677 5677 5676 5676 5677 5677 5677 5677 5678 5679
5759 5758 5756 5754 5752 5750 5747 5745 5743 5740 5737 5734 5731 5728 5724 5720 5716 5713 5709 5706 5703 5700 5697 5694 5692 5689 5686 5683 5682 5680 5678 5677 5676 5676 5675 5675 5675 5675 5675 5675 5675 5675 5675
5754 5753 5751 5749 5747 5745 5743 5741 5739 5737 5734 5732 5728 5725 5721 5718 5714 5710 5707 5704 5701 5698 5695 5692 5689 5687 5684 5682 5680 5678 5676 5674 5674 5673 5673 5673 5673 5673 5673 5673 5673 5673 5673
5749 5747 5746 5745 5743 5741 5739 5737 5735 5733 5731 5728 5725 5722 5719 5715 5712 5708 5705 5702 5699 5696 5693 5690 5688 5685 5682 5680 5678 5676 5674 5672 5671 5671 5671 5670 5670 5670 5670 5670 5670 5670 5670
5743 5742 5741 5739 5738 5736 5735 5733 5732 5730 5727 5725 5722 5719 5716 5713 5709 5706 5703 5700 5697 5694 5691 5688 5685 5683 5680 5678 5676 5674 5672 5671 5670 5669 5668 5668 5668 5667 5667 5667 5667 5667 5666
5737 5736 5735 5734 5733 5732 5730 5729 5727 5725 5723 5721 5719 5716 5713 5710 5707 5704 5701 5698 5695 5692 5689 5686 5684 5681 5679 5677 5675 5673 5671 5670 5668 5667 5666 5665 5665 5665 5664 5664 5664 5664 5663
5730 5730 5729 5728 5727 5726 5725 5724 5722 5721 5719 5717 5715 5712 5710 5707 5704 5701 5699 5696 5693 5690 5687 5684 5682 5679 5677 5675 5673 5671 5669 5668 5666 5665 5664 5663 5662 5662 5661 5661 5661 5661 5660
5724 5723 5722 5722 5721 5720 5719 5718 5717 5715 5714 5713 5711 5709 5706 5704 5701 5698 5696 5693 5690 5687 5684 5681 5679 5677 5674 5672 5671 5669 5667 5666 5664 5663 5661 5660 5659 5659 5658 5658 5657 5657 5656
5716 5716 5715 5715 5715 5714 5713 5712 5711 5710 5709 5708 5706 5705 5702 5700 5697 5695 5692 5690 5687 5684 5681 5678 5675 5673 5671 5669 5667 5666 5664 5663 5662 5660 5659 5657 5657 5656 5655 5654 5653 5653 5652
5709 5709 5709 5708 5708 5708 5707 5706 5706 5705 5704 5703 5702 5700 5698 5695 5693 5691 5688 5686 5683 5680 5677 5674 5672 5669 5667 5666 5664 5663 5662 5660 5659 5657 5656 5655 5653 5652 5651 5651 5650 5649 5648
5701 5701 5701 5701 5701 5702 5701 5701 5700 5699 5698 5697 5696 5695 5693 5691 5689 5686 5684 5681 5679 5676 5674 5671 5669 5666 5664 5662 5661 5660 5659 5658 5656 5655 5653 5652 5651 5650 5649 5648 5647 5646 5645
5693 5694 5694 5694 5695 5695 5695 5695 5694 5694 5693 5692 5691 5690 5688 5687 5685 5682 5679 5677 5675 5673 5671 5669 5666 5664 5662 5660 5659 5657 5656 5655 5654 5652 5651 5650 5649 5648 5647 5646 5645 5644 5642
5686 5687 5687 5688 5688 5688 5689 5689 5688 5688 5688 5687 5686 5685 5684 5682 5680 5678 5675 5673 5671 5670 5668 5666 5663 5661 5659 5658 5656 5655 5654 5653 5651 5650 5649 5648 5647 5646 5645 5644 5642 5641 5639
5679 5679 5680 5681 5681 5681 5682 5682 5682 5682 5682 5682 5681 5680 5679 5678 5676 5674 5672 5670 5668 5667 5665 5663 5661 5659 5657 5655 5654 5653 5651 5650 5649 5648 5647 5646 5645 5643 5642 5641 5640 5638 5637
5671 5672 5672 5673 5674 5674 5675 5675 5676 5676 5676 5676 5676 5675 5674 5673 5672 5670 5669 5667 5665 5664 5662 5660 5658 5656 5655 5654 5652 5651 5649 5648 5647 5646 5645 5643 5642 5641 5640 5638 5637 5635 5634
5663 5664 5665 5666 5667 5668 5668 5669 5669 5670 5670 5670 5670 5670 5669 5668 5667 5666 5665 5663 5662 5660 5659 5657 5656 5654 5653 5652 5650 5649 5647 5646 5645 5644 5642 5641 5640 5638 5637 5635 5634 5632 5631